星链-37569(STARLINK-37569)

导读

STARLINK-37569(NORAD ID 69836)是美国太空探索技术公司(SpaceX)星链低轨互联网星座的组网卫星,属于新一代V2系列星链平台,设计寿命约5年。该卫星部署于约530-550公里的近地轨道,轨道运行周期约95分钟,主要承担全球宽带互联网接入服务,可支持地面终端高速数据传输,部分批次具备手机直连通信能力,能为偏远区域提供稳定网络覆盖,是星链全球无缝通信组网的组成部分。

基本信息
目录编号:
69836
目录名称:
STARLINK-37569
国际标识:
2026-154T
轨道中心:
EARTH
卫星名称:
星链-37569
卫星全名:
星链-37569(STARLINK-37569)
卫星状态:
在轨 (已飞行61 天)
发射日期:
2026-07-05 UTC
国别 :
美国 (US)
星等 :
--
轨道信息
数据来源 国际轨道数据
星历时间: 2026-09-03T18:49:54+0800
19小时前
查看轨道信息
半长轴: 6840.854km
偏心率: 0.0001151
轨道倾角: 53.162°
近地点辐角 85.828°
升交点赤经 51.214°
平近点角 274.285°
近地点: 461.929km
远地点: 463.505km
周期: 93.848分钟
每日圈数: 15.343957
详细信息
固有亮度:
5
最大亮度:
2.5
卫星平台:
Starlink V1.0
覆盖范围:
全球
运营商:
太空探索技术公司
运营商所在国:
美国
制造商(研发单位):
太空探索技术公司
制造商所在国:
美国
使用方式:
暂无
卫星简介
Starlink 计划是 SpaceX 推出的全球卫星互联网项目,通过发射低轨道卫星,为全球尤其是偏远地区提供高速、低延迟的互联网服务。自 2019 年起,Starlink 已部署数千颗卫星,旨在缩小全球数字鸿沟,推动互联网普及。该项目还为军事、航空等行业提供通信支持,带来广泛经济效益。
2D轨道图
3D轨道图
轨道高度分析图
轨道倾角分析图
轨道综合分析图
查看轨道综合分析图
交会数据列表
事件ID 空间交会对象 最接近时刻(TCA) 交会距离 交会风险概率(CRP) 交会风险指数(CRI) 操作
CDM_260905-025806-582806-983621
2026-09-05T
02:58:51+0000
1.206 km
极远距离
8.513862E-6 低风险 0.54
CDM_260905-012506-582806-983621
2026-09-05T
01:25:04+0000
1.268 km
极远距离
7.158919E-6 低风险 0.52
CDM_260904-151506-582806-983621
2026-09-04T
15:15:26+0000
2.592 km
极远距离
1.082631E-6 低风险 0.36
CDM_260904-011905-082306-983621
2026-09-04T
01:19:49+0000
2.588 km
极远距离
7.01608E-7 极低风险 0.32
CDM_260904-020605-082306-983621
2026-09-04T
02:06:44+0000
2.912 km
极远距离
6.023711E-7 极低风险 0.31